Weather in Zarechny

Russia / Republic of Tatarstan     54°30′01″N   50°22′59″E
temp.,
°C
wind,
m/s
gust,
m/s
humid.,
%
clouds,
%
prec.,
mm/h
press.,
hPa
HPBL,
m
19 september, sun
sun1900:00+3wnw23796 0.0 102366
03:00+1nw36905 0.0 1024111
06:00+1nw3792100 0.0 1024181
09:00+6nw4560100 0.0 1025762
12:00+9nw454522 0.0 10251163
15:00+10nnw44426 0.0 10241256
18:00+5nw336130 0.0 102525
21:00+4nnw2264100 0.0 102511
20 september, mon
mon2000:00+3n11708 0.0 102610
03:00+2ne227899 0.0 102620
06:00+1ene367998 0.0 1027128
09:00+7e455396 0.0 1027569
12:00+11e444291 0.0 10261107
15:00+12e443982 0.0 10251233
18:00+8ene485097 0.0 1025176
21:00+7e51051100 0.0 1026309
21 september, tue
tue2100:00+7e41052100 0.0 1025311
03:00+7e4951100 0.0 1025319
06:00+6e51054100 0.0 1024344
09:00+9ese6946100 0.0 1024512
12:00+9ese5948100 0.0 1023572
15:00+9e61156100 0.0 1022477
18:00+9ese51155100 0.0 1021480
21:00+9e51055100 0.0 1020363
22 september, wed
wed2200:00+9e51153100 0.0 1018328
03:00+9e51255100 0.0 1017361
06:00+10ese61255100 0.0 1017378
09:00+13se61245100 0.0 1016623
12:00+12ese61257100 0.3 1016434
15:00+15se61249100 0.3 1017845
18:00+13se71448100 0.0 1018496
21:00+12se51060100 0.3 1020470
23 september, thu
thu2300:00+11se61376100 0.0 1020478
03:00+11ese51260100 0.0 1020389
06:00+10ese5135897 0.0 1020392
09:00+10sse61271100 0.8 1022479
12:00+10sse41083100 2.3 1023352
15:00+12sse3789100 3.4 1023485
18:00+12se41275100 0.4 1024539
21:00+11sse5966100 0.6 1024264